GW2791 Weather Reports


time (UTC)temp
C
wind
direction
speed
KPH
gust
KPH
rain 1hr
cm
rain 24hr
cm
rain mn
cm
humidity
%
barometer
mb
20260505163445 26 177 6.4 9.7 0.00 0.00 0.00 43 1012.4
20260505162944 26 219 8.0 9.7 0.00 0.00 0.00 44 1012.7
20260505162439 26 273 8.0 12.9 0.00 0.00 0.00 45 1012.5
20260505161936 26 267 3.2 3.2 0.00 0.00 0.00 47 1012.7
20260505161432 26 228 1.6 4.8 0.00 0.00 0.00 46 1012.8
20260505160930 25 240 11.3 12.9 0.00 0.00 0.00 46 1012.8
20260505160423 25 240 4.8 4.8 0.00 0.00 0.00 48 1012.8
20260505152859 25 137 3.2 4.8 0.00 0.00 0.00 50 1013.2
20260505152356 25 132 8.0 9.7 0.00 0.00 0.00 50 1013.1
20260505151855 25 197 9.7 12.9 0.00 0.00 0.00 47 1013.1
20260505151352 25 117 3.2 4.8 0.00 0.00 0.00 51 1013.0
20260505150849 25 247 3.2 3.2 0.00 0.00 0.00 52 1013.1
20260505150346 25 238 4.8 9.7 0.00 0.00 0.00 49 1013.2
20260505140305 23 344 0.0 0.0 0.00 0.00 0.00 53 1013.2
20260505130223 17 253 0.0 1.6 0.00 0.00 0.00 77 1013.0
20260505124713 16 247 0.0 0.0 0.00 0.00 0.00 78 1013.0
20260505124210 16 241 1.6 1.6 0.00 0.00 0.00 80 1013.1
20260505123705 16 322 0.0 0.0 0.00 0.00 0.00 81 1013.0
20260505123203 15 324 0.0 0.0 0.00 0.00 0.00 82 1013.2
20260505122659 15 330 1.6 1.6 0.00 0.00 0.00 82 1013.2
20260505122156 15 339 1.6 1.6 0.00 0.00 0.00 86 1013.1
20260505121653 13 140 3.2 3.2 0.00 0.00 0.00 81 1013.1
20260505121149 12 140 3.2 3.2 0.00 0.00 0.00 89 1013.3
20260505120645 12 269 0.0 0.0 0.00 0.00 0.00 99 1013.4
20260505120141 12 296 0.0 0.0 0.00 0.00 0.00 99 1013.5
20260505115635 11 277 0.0 0.0 0.00 0.00 0.00 99 1013.6
20260505115133 11 268 0.0 0.0 0.00 0.00 0.00 99 1013.5
20260505114625 10 247 0.0 0.0 0.00 0.00 0.00 99 1013.3
20260505114121 10 138 3.2 3.2 0.00 0.00 0.00 99 1013.2
20260505113617 10 248 0.0 0.0 0.00 0.00 0.00 99 1013.3
20260505113114 9 304 0.0 0.0 0.00 0.00 0.00 99 1013.3
20260505112610 8 231 0.0 0.0 0.00 0.00 0.00 99 1013.4
20260505112108 8 275 0.0 0.0 0.00 0.00 0.00 99 1013.0
20260505111602 8 75 0.0 0.0 0.00 0.00 0.00 99 1013.1
20260505111058 8 236 0.0 0.0 0.00 0.00 0.00 99 1012.8
20260505110555 8 249 0.0 0.0 0.00 0.00 0.00 99 1013.0
20260505102027 8 151 3.2 3.2 0.00 0.00 0.00 99 1012.5
20260505101526 8 255 0.0 0.0 0.00 0.00 0.00 99 1012.5
20260505101022 8 217 0.0 0.0 0.00 0.00 0.00 99 1012.5
20260505100519 8 244 1.6 1.6 0.00 0.00 0.00 99 1012.3
20260505100016 8 229 0.0 1.6 0.00 0.00 0.00 99 1012.6
20260505095512 8 278 0.0 0.0 0.00 0.00 0.00 99 1012.4
20260505095008 8 319 0.0 0.0 0.00 0.00 0.00 99 1012.3
20260505094505 8 290 0.0 0.0 0.00 0.00 0.00 99 1012.6
20260505094001 8 237 0.0 0.0 0.00 0.00 0.00 99 1012.3
20260505093458 8 265 0.0 0.0 0.00 0.00 0.00 99 1012.4
20260505092955 8 274 0.0 0.0 0.00 0.00 0.00 99 1012.3
20260505092452 8 233 3.2 3.2 0.00 0.00 0.00 99 1012.4
20260505091950 8 356 0.0 1.6 0.00 0.00 0.00 99 1012.3
20260505091447 8 300 0.0 0.0 0.00 0.00 0.00 99 1012.4
20260505090945 8 264 0.0 0.0 0.00 0.00 0.00 99 1012.3
20260505090443 8 271 0.0 0.0 0.00 0.00 0.00 99 1012.2
20260505085940 8 160 1.6 1.6 0.00 0.00 0.00 99 1012.2
20260505085438 8 292 0.0 0.0 0.00 0.00 0.00 99 1012.2
20260505084936 8 270 0.0 0.0 0.00 0.00 0.00 99 1012.3
20260505084434 9 188 0.0 1.6 0.00 0.00 0.00 99 1012.1
20260505083931 9 196 0.0 1.6 0.00 0.00 0.00 99 1012.3
20260505083429 8 184 1.6 1.6 0.00 0.00 0.00 99 1012.0
20260505082925 8 276 0.0 0.0 0.00 0.00 0.00 99 1012.3
20260505082421 9 284 0.0 0.0 0.00 0.00 0.00 99 1012.0
20260505081918 10 249 1.6 1.6 0.00 0.00 0.00 99 1012.0
20260505081415 10 169 3.2 3.2 0.00 0.00 0.00 99 1012.0
20260505080911 10 272 0.0 0.0 0.00 0.00 0.00 99 1011.9
20260505080408 10 219 0.0 0.0 0.00 0.00 0.00 99 1011.9
20260505075903 10 276 0.0 0.0 0.00 0.00 0.00 99 1011.9
20260505075400 10 37 0.0 0.0 0.00 0.00 0.00 99 1011.7
20260505074858 10 316 0.0 0.0 0.00 0.00 0.00 99 1011.7
20260505074355 10 211 1.6 1.6 0.00 0.00 0.00 99 1011.8
20260505073852 10 48 1.6 1.6 0.00 0.00 0.00 99 1011.9
20260505073349 10 232 0.0 0.0 0.00 0.00 0.00 99 1011.6
20260505072846 10 292 0.0 0.0 0.00 0.00 0.00 99 1011.6
20260505072342 10 329 0.0 0.0 0.00 0.00 0.00 99 1011.7
20260505071839 10 290 0.0 0.0 0.00 0.00 0.00 99 1011.5
20260505071335 10 287 0.0 0.0 0.00 0.00 0.00 99 1011.5
20260505070834 10 29 1.6 1.6 0.00 0.00 0.00 99 1011.4
20260505070330 10 269 0.0 0.0 0.00 0.00 0.00 99 1011.5
20260505065825 10 36 1.6 1.6 0.00 0.00 0.00 99 1011.6
20260505065322 10 8 1.6 1.6 0.00 0.00 0.00 99 1011.7
20260505064819 10 346 1.6 1.6 0.00 0.00 0.00 99 1011.5
20260505064316 10 321 0.0 0.0 0.00 0.00 0.00 99 1011.6
20260505063814 10 84 0.0 0.0 0.00 0.00 0.00 99 1011.4
20260505063310 10 307 0.0 0.0 0.00 0.00 0.00 99 1011.4
20260505062806 10 307 0.0 1.6 0.00 0.00 0.00 99 1011.4
20260505062304 10 103 0.0 0.0 0.00 0.00 0.00 99 1011.4
20260505061801 10 323 0.0 0.0 0.00 0.00 0.00 99 1011.6
20260505061259 10 274 0.0 0.0 0.00 0.00 0.00 99 1011.6
20260505060756 10 330 0.0 0.0 0.00 0.00 0.00 99 1011.6
20260505060253 10 307 0.0 0.0 0.00 0.00 0.00 99 1011.4
20260505055748 10 229 0.0 0.0 0.00 0.00 0.00 99 1011.5
20260505055245 10 256 0.0 0.0 0.00 0.00 0.00 99 1011.4
20260505054742 10 279 0.0 0.0 0.00 0.00 0.00 99 1011.4
20260505054240 10 353 0.0 1.6 0.00 0.00 0.00 99 1011.4
20260505053738 10 252 0.0 0.0 0.00 0.00 0.00 99 1011.1
20260505053234 10 280 0.0 0.0 0.00 0.00 0.00 99 1011.5
20260505052731 10 299 0.0 0.0 0.00 0.00 0.00 99 1011.4
20260505052228 10 250 0.0 0.0 0.00 0.00 0.00 99 1011.5
20260505051725 10 267 0.0 0.0 0.00 0.00 0.00 99 1011.4
20260505051223 10 285 0.0 0.0 0.00 0.00 0.00 99 1011.5
20260505050721 10 59 1.6 1.6 0.00 0.00 0.00 99 1011.4
20260505050219 10 262 0.0 0.0 0.00 0.00 0.00 99 1011.5
20260505041648 9 262 0.0 0.0 0.00 0.00 0.00 99 1011.7
20260505041146 9 248 0.0 0.0 0.00 0.00 0.00 99 1011.6
20260505040643 9 213 0.0 0.0 0.00 0.00 0.00 99 1011.5
20260505040140 9 253 0.0 0.0 0.00 0.00 0.00 99 1011.7
20260505035636 9 250 0.0 0.0 0.00 0.08 0.08 99 1011.5
20260505035132 9 249 0.0 0.0 0.00 0.08 0.08 99 1011.7
20260505034629 9 269 0.0 0.0 0.00 0.08 0.08 99 1011.7
20260505034126 10 283 0.0 0.0 0.00 0.08 0.08 99 1011.4
20260505033622 10 244 0.0 0.0 0.00 0.08 0.08 99 1011.7
20260505033121 10 262 0.0 0.0 0.00 0.08 0.08 99 1011.7
20260505032619 10 288 0.0 0.0 0.00 0.08 0.08 99 1011.8
20260505032115 10 227 0.0 0.0 0.00 0.08 0.08 99 1012.1
20260505031612 10 303 0.0 0.0 0.00 0.08 0.08 99 1011.9
20260505031108 10 274 0.0 0.0 0.00 0.08 0.08 99 1011.9
20260505030605 10 279 0.0 0.0 0.00 0.08 0.08 99 1011.9
20260505025557 10 247 0.0 0.0 0.00 0.08 0.08 99 1011.8
20260505025057 10 263 0.0 0.0 0.00 0.08 0.08 99 1012.0
20260505024553 10 239 0.0 0.0 0.00 0.08 0.08 99 1012.0
20260505024050 10 263 0.0 0.0 0.00 0.08 0.08 99 1011.8
20260505023547 10 256 0.0 0.0 0.00 0.08 0.08 99 1012.1
20260505023045 11 217 1.6 3.2 0.00 0.08 0.08 99 1012.0
20260505022542 11 263 0.0 0.0 0.00 0.08 0.08 99 1012.1
20260505022039 11 240 0.0 0.0 0.00 0.08 0.08 99 1012.1
20260505021536 11 264 0.0 0.0 0.00 0.08 0.08 99 1012.2
20260505021032 11 232 0.0 0.0 0.00 0.08 0.08 99 1012.2
20260505020526 11 273 0.0 0.0 0.00 0.08 0.08 99 1012.0
20260505020024 11 326 0.0 0.0 0.00 0.08 0.08 99 1012.1
20260505015521 11 273 0.0 0.0 0.00 0.08 0.08 99 1012.1
20260505015018 11 247 0.0 0.0 0.00 0.08 0.08 99 1012.1
20260505014515 11 262 0.0 0.0 0.00 0.08 0.08 99 1011.8
20260505014012 11 280 0.0 0.0 0.00 0.08 0.08 99 1012.1
20260505013509 11 246 0.0 0.0 0.00 0.08 0.08 99 1012.0
20260505013006 12 292 0.0 0.0 0.00 0.08 0.08 99 1011.9
20260505012505 12 259 0.0 0.0 0.00 0.08 0.08 99 1012.1
20260505012001 12 234 0.0 0.0 0.00 0.08 0.08 99 1011.7
20260505011456 12 247 0.0 0.0 0.00 0.08 0.08 99 1011.9
20260505010954 12 234 0.0 0.0 0.00 0.08 0.08 99 1011.6
20260505010449 12 258 0.0 0.0 0.00 0.08 0.08 99 1011.8
20260505005946 12 311 0.0 0.0 0.00 0.08 0.08 99 1011.7
20260505005442 13 250 0.0 0.0 0.00 0.08 0.08 99 1011.7
20260505004940 13 256 0.0 0.0 0.00 0.08 0.08 99 1011.6
20260505004437 13 33 1.6 3.2 0.00 0.08 0.08 99 1011.4
20260505003934 13 21 1.6 1.6 0.00 0.08 0.08 99 1011.6
20260505003431 13 278 0.0 0.0 0.00 0.08 0.08 99 1011.5
20260505002927 14 268 0.0 0.0 0.00 0.08 0.08 99 1011.4
20260505002423 14 10 0.0 1.6 0.00 0.08 0.08 99 1011.4
20260505001922 14 252 0.0 0.0 0.00 0.08 0.08 99 1011.4
20260505001419 15 25 0.0 0.0 0.00 0.08 0.08 99 1011.4
20260505000916 15 25 0.0 0.0 0.00 0.08 0.08 99 1011.2
20260505000414 15 358 0.0 0.0 0.00 0.08 0.08 99 1011.1
20260504235910 15 259 0.0 0.0 0.00 0.08 0.08 99 1011.1
20260504235408 15 243 0.0 0.0 0.00 0.08 0.08 99 1011.1
20260504234904 15 281 0.0 0.0 0.00 0.08 0.08 99 1011.0
20260504234402 15 248 0.0 0.0 0.00 0.08 0.08 99 1011.0
20260504233858 16 253 0.0 0.0 0.00 0.08 0.08 99 1011.2
20260504233353 16 290 0.0 0.0 0.00 0.08 0.08 99 1010.8
20260504232850 16 274 0.0 0.0 0.00 0.08 0.08 99 1010.7
20260504232348 16 225 0.0 0.0 0.00 0.08 0.08 99 1010.7
20260504231844 16 290 0.0 0.0 0.00 0.08 0.08 99 1010.9
20260504231341 16 294 0.0 0.0 0.00 0.08 0.08 99 1011.1
20260504230837 16 242 0.0 0.0 0.00 0.08 0.08 99 1011.1
20260504230335 16 291 0.0 1.6 0.00 0.08 0.08 99 1011.1
20260504225834 16 357 1.6 1.6 0.00 0.08 0.08 99 1010.9
20260504225329 16 347 1.6 1.6 0.00 0.08 0.08 97 1011.2
20260504224827 16 262 0.0 0.0 0.13 0.08 0.08 95 1011.1
20260504224324 16 280 0.0 0.0 0.48 0.08 0.08 90 1011.0
20260504223821 18 203 4.8 4.8 0.36 0.05 0.05 77 1011.5
20260504223316 21 221 8.0 9.7 0.00 0.00 0.00 60 1011.9
20260504222813 22 224 8.0 9.7 0.00 0.00 0.00 48 1011.4
20260504222310 23 279 4.8 8.0 0.00 0.00 0.00 47 1010.8
20260504221808 23 202 3.2 4.8 0.00 0.00 0.00 47 1010.7
20260504221304 23 243 3.2 4.8 0.00 0.00 0.00 47 1010.6
20260504220801 23 225 11.3 16.1 0.00 0.00 0.00 46 1010.5
20260504220258 23 244 1.6 1.6 0.00 0.00 0.00 47 1010.2
20260504215756 24 287 6.4 9.7 0.00 0.00 0.00 46 1010.4
20260504215252 25 236 4.8 4.8 0.00 0.00 0.00 46 1010.3
20260504214748 25 252 8.0 11.3 0.00 0.00 0.00 44 1010.4
20260504214244 24 253 3.2 3.2 0.00 0.00 0.00 47 1010.2
20260504213741 23 201 4.8 4.8 0.00 0.00 0.00 45 1010.4
20260504213238 23 345 4.8 8.0 0.00 0.00 0.00 46 1010.4
20260504212735 23 249 4.8 4.8 0.00 0.00 0.00 47 1010.3
20260504212231 23 241 4.8 4.8 0.00 0.00 0.00 47 1010.5
20260504211729 23 213 6.4 8.0 0.00 0.00 0.00 45 1010.5
20260504211225 24 227 11.3 14.5 0.00 0.00 0.00 46 1010.2
20260504210723 25 273 4.8 8.0 0.00 0.00 0.00 44 1010.3
20260504210220 24 251 4.8 4.8 0.00 0.00 0.00 44 1010.2
20260504205717 24 258 3.2 4.8 0.00 0.00 0.00 44 1010.4
20260504205214 24 207 6.4 8.0 0.00 0.00 0.00 45 1010.4
20260504204712 23 242 8.0 11.3 0.00 0.00 0.00 44 1010.5
20260504204210 24 179 9.7 11.3 0.00 0.00 0.00 45 1010.5
20260504203709 24 244 6.4 9.7 0.00 0.00 0.00 44 1010.5
20260504203207 23 213 6.4 9.7 0.00 0.00 0.00 45 1010.7
20260504202706 23 44 8.0 9.7 0.00 0.00 0.00 44 1010.7
20260504202204 23 230 16.1 22.5 0.00 0.00 0.00 44 1010.7
20260504201701 23 222 9.7 12.9 0.00 0.00 0.00 45 1010.5
20260504201158 23 147 4.8 8.0 0.00 0.00 0.00 46 1010.7
20260504200655 23 213 4.8 12.9 0.00 0.00 0.00 46 1010.9
20260504200152 23 200 4.8 8.0 0.00 0.00 0.00 45 1010.9
20260504195647 23 294 4.8 11.3 0.00 0.00 0.00 45 1010.8
20260504195144 23 213 3.2 3.2 0.00 0.00 0.00 47 1010.7
20260504194641 23 230 8.0 9.7 0.00 0.00 0.00 46 1011.0
20260504194137 24 248 4.8 4.8 0.00 0.00 0.00 45 1011.1
20260504193633 23 173 1.6 3.2 0.00 0.00 0.00 46 1011.2
20260504193132 23 9 4.8 8.0 0.00 0.00 0.00 45 1011.2
20260504192629 23 174 11.3 14.5 0.00 0.00 0.00 46 1011.2
20260504192127 24 112 4.8 9.7 0.00 0.00 0.00 45 1011.3
20260504191625 23 231 12.9 16.1 0.00 0.00 0.00 44 1011.5
20260504191121 23 203 4.8 8.0 0.00 0.00 0.00 44 1011.6
20260504190617 23 160 4.8 4.8 0.00 0.00 0.00 44 1011.7
20260504190114 23 10 3.2 4.8 0.00 0.00 0.00 44 1011.7
20260504185610 23 217 6.4 8.0 0.00 0.00 0.00 44 1011.7
20260504185107 23 183 6.4 8.0 0.00 0.00 0.00 45 1011.9
20260504184603 23 226 6.4 9.7 0.00 0.00 0.00 43 1011.8
20260504184058 24 174 3.2 4.8 0.00 0.00 0.00 43 1012.0
20260504183555 23 237 3.2 3.2 0.00 0.00 0.00 45 1012.1
20260504183053 22 229 11.3 16.1 0.00 0.00 0.00 45 1011.9
20260504182550 23 150 11.3 12.9 0.00 0.00 0.00 44 1012.1
20260504182048 22 236 11.3 14.5 0.00 0.00 0.00 43 1012.1
20260504181545 22 180 9.7 14.5 0.00 0.00 0.00 44 1012.4
20260504181043 23 249 8.0 11.3 0.00 0.00 0.00 43 1012.3
20260504180541 22 226 11.3 12.9 0.00 0.00 0.00 44 1012.5
20260504180040 23 229 12.9 17.7 0.00 0.00 0.00 44 1012.4
20260504175537 22 237 8.0 9.7 0.00 0.00 0.00 45 1012.6
20260504175034 22 242 8.0 11.3 0.00 0.00 0.00 47 1012.6
20260504174532 22 129 3.2 3.2 0.00 0.00 0.00 47 1012.7
20260504174028 22 216 3.2 3.2 0.00 0.00 0.00 44 1012.6
20260504173525 22 210 4.8 8.0 0.00 0.00 0.00 47 1012.7
20260504173022 21 256 3.2 4.8 0.00 0.00 0.00 45 1012.7
20260504172518 21 173 4.8 9.7 0.00 0.00 0.00 44 1012.9
20260504172015 22 237 8.0 11.3 0.00 0.00 0.00 46 1012.9
20260504171512 22 210 6.4 8.0 0.00 0.00 0.00 45 1012.9
20260504171009 22 227 9.7 11.3 0.00 0.00 0.00 44 1013.0
20260504170505 22 233 6.4 8.0 0.00 0.00 0.00 45 1013.0